SCP
0 0 0 0 0 0 0 0 0 0 0 0 0 0 0 0 0 0 0 0 0 0 0 0 0 0 0 0 0 0 0 0 0 0 0 0 0 0 0 0 0 0 0
0 0 0 0 0 0 0 0 0 0 0 0 0 0 0 0 0 0 0 0 0 0 0 0 0 0 0 0 0 0 0 0 0 0 0 0 0 0 0 0 0 0 0
0 0 0 0 0 0 0 0 0 0 0 0 0 0 0 0 0 0 0 0 0 0 0 0 0 0 0 0 0 0 0 0 0 0 0 0 0 0 0 0 0 0 0
0 0 0 0 0 0 0 0 0 0 0 0 0 0 0 0 0 0 0 0 0 0 0 0 0 0 0 0 0 0 0 0 0 0 0 0 0 0 0 0 0 0 0
0 0 0 0 0 0 0 0 0 0 0 0 0 0 0 0 0 0 0 0 0 0 0 0 0 0 0 0 0 0 0 0 0 0 0 0 0 0 0 0 0 0 0
0 0 0 0 0 0 0 0 0 0 0 0 0 0 0 0 0 0 0 0 0 0 0 0 0 0 0 0 0 0 0 0 0 0 0 0 0 0 0 0 0 0 0
0 0 0 0 0 0 0 0 0 0 0 0 0 0 0 0 0 0 0 0 0 0 0 0 0 0 0 0 0 0 0 0 0 0 0 0 0 0 0 0 0 0 0
0 0 0 0 0 0 0 0 0 0 0 0 0 0 0 0 0 0 0 0 0 0 0 0 0 0 0 0 0 0 0 0 0 0 0 0 0 0 0 0 0 0 0
0 0 0 0 0 0 0 0 0 0 0 0 0 0 0 0 0 0 0 0 0 0 0 0 0 0 0 0 0 0 0 0 0 0 0 0 0 0 0 0 0 0 0
0 0 0 0 0 0 0 0 0 0 0 0 0 0 0 0 0 0 0 0 0 0 0 0 0 0 0 0 0 0 0 0 0 0 0 0 0 0 0 0 0 0 0
0 0 0 0 0 0 0 0 0 0 0 0 0 0 0 0 0 0 0 0 0 0 0 0 0 0 0 0 0 0 0 0 0 0 0 0 0 0 0 0 0 0 0
0 0 0 0 0 0 0 0 0 0 0 0 0 0 0 0 0 0 0 0 0 0 0 0 0 0 0 0 0 0 0 0 0 0 0 0 0 0 0 0 0 0 0
0 0 0 0 0 0 0 0 0 0 0 0 0 0 0 0 0 0 0 0 0 0 0 0 0 0 0 0 0 0 0 0 0 0 0 0 0 0 0 0 0 0 -0
0 0 0 0 0 0 0 0 0 0 0 0 0 0 0 0 0 0 0 0 0 0 0 0 0 0 0 0 0 0 0 0 0 0 0 0 0 0 0 0 0 0 0
0 0 0 0 0 0 0 0 0 0 0 0 0 0 0 0 0 0 0 0 0 0 0 0 0 0 0 0 0 0 0 0 0 0 0 0 0 0 0 0 0 0 0
0 0 0 0 0 0 0 0 0 0 0 0 0 0 0 0 0 0 0 0 0 0 0 0 0 0 0 0 0 0 0 0 0 0 0 0 0 0 0 0 0 0 0
0 0 0 0 0 0 0 0 0 0 0 0 0 0 0 0 0 0 0 0 0 0 0 0 0 0 0 0 0 0 0 0 0 0 0 0 0 0 0 0 0 0 0
0 0 0 0 0 0 0 0 0 0 0 0 0 0 0 0 0 0 0 0 0 0 0 0 0 0 0 0 0 0 0 0 0 0 0 0 0 0 0 0 0 0 0
0 0 0 0 0 0 0 0 0 0 0 0 0 0 0 0 0 0 0 0 0 0 0 0 0 0 0 0 0 0 0 0 0 0 -0 0 0 0 0 0 0 0 0
0 0 0 0 0 0 0 0 0 0 0 0 0 0 0 0 0 0 0 0 0 0 0 0 0 0 0 0 0 0 0 0 0 0 -0 0 0 0 0 0 0 0 0
0 0 0 0 0 0 0 0 0 0 0 0 0 0 0 0 0 0 0 0 0 0 0 0 0 0 0 0 0 0 0 0 0 -0 -0 0 0 0 0 0 0 0 -0
0 0 0 0 0 0 0 0 0 0 0 0 0 0 0 0 0 0 0 0 0 0 0 0 0 0 0 0 0 0 0 0 -0 -0 -0 0 0 0 0 0 0 -0 -0
0 0 0 0 0 0 0 0 0 0 0 0 0 0 0 0 0 0 0 0 0 0 0 0 0 0 0 0 0 0 0 0 -0 -0 -0 -0 -0 0 0 0 -0 -0 -0
0 0 0 0 0 0 0 0 0 0 0 0 0 0 0 0 0 0 0 0 0 0 0 0 0 0 0 0 0 0 0 0 -0 -0 -0 -0 -0 -0 0 -0 -0 -0 0
0 0 0 0 0 0 0 0 0 0 0 0 0 0 0 0 0 0 0 0 0 0 0 0 0 0 0 0 0 0 0 0 -0 -0 -0 -0 -0 0 -0 -0 -0 -0 -0
0 0 0 0 0 0 0 0 0 0 0 0 0 0 0 0 0 0 0 0 0 0 0 0 0 0 0 0 0 0 0 0 -0 -0 -0 -0 -0 -0 0 0 -0 0 -0
Wind_Speed_500mb
94 98 103 99 100 100 94 89 86 85 86 81 75 68 63 58 56 55 52 50 48 46 48 51 52 56 59 63 67 69 71 71 92 158 127 127 126 128 126 114 117 125 126
91 99 102 106 104 101 99 93 87 84 84 80 74 69 65 60 58 56 54 48 47 47 50 53 56 58 63 68 69 72 74 72 78 113 142 133 134 128 120 107 114 113 113
91 97 101 103 103 102 100 96 86 81 83 82 79 72 67 63 60 55 54 48 47 49 52 54 58 62 68 69 71 73 72 69 71 90 130 130 132 126 125 105 100 106 108
91 95 99 99 99 100 100 95 85 80 83 83 79 72 69 64 59 55 51 47 48 51 52 55 59 63 66 67 68 70 72 74 78 87 106 124 113 110 108 111 116 98 104
94 96 97 94 96 97 98 93 82 76 80 79 78 74 70 64 57 52 49 47 50 52 52 55 59 62 60 59 61 68 70 80 82 87 100 101 104 101 100 102 102 111 109
94 95 93 93 94 94 93 88 82 78 79 81 81 76 68 61 53 49 48 47 50 50 53 55 58 59 57 57 59 61 66 77 90 93 100 102 116 106 107 104 101 103 110
90 92 92 90 91 91 89 86 85 82 82 85 82 74 65 56 50 44 48 51 49 47 50 54 55 55 55 64 67 65 71 74 79 89 107 115 116 114 108 112 107 111 117
83 83 84 86 89 88 87 85 84 84 84 85 80 71 61 53 45 46 54 49 44 45 47 50 52 53 58 59 69 75 83 89 91 91 96 113 112 114 107 113 118 119 123
73 77 81 84 89 87 87 87 84 83 84 84 76 67 59 46 47 56 50 44 40 42 44 45 47 56 62 53 63 83 100 101 83 80 88 91 94 100 100 103 110 97 110
66 74 78 81 85 84 85 84 77 78 80 81 73 65 51 51 57 51 43 37 39 40 42 45 50 54 52 52 67 79 94 100 90 99 99 94 108 115 82 81 96 98 101
62 67 74 80 82 82 81 83 80 84 84 79 69 59 53 59 50 45 39 32 33 33 40 47 48 50 49 60 58 68 75 79 91 101 95 88 88 83 71 79 81 84 97
58 63 71 76 79 82 82 84 83 89 89 79 69 58 60 52 47 40 32 27 22 31 33 40 44 46 55 57 57 57 61 65 71 81 84 83 83 82 79 74 74 84 100
60 65 67 72 77 82 84 87 92 94 87 78 64 62 59 54 44 36 28 24 20 18 26 32 38 45 50 51 52 55 57 61 65 72 82 81 80 88 89 87 74 82 95
64 68 71 74 81 85 86 87 95 97 92 78 70 67 59 52 41 32 22 17 13 16 22 27 35 40 45 51 56 58 60 61 66 70 80 86 81 88 87 79 77 81 85
73 72 74 78 83 86 92 97 102 91 81 76 75 64 63 53 39 29 18 9 11 11 18 24 31 41 50 57 62 65 64 67 73 74 83 84 87 92 87 76 82 87 80
82 81 84 87 88 93 100 103 97 87 83 72 57 58 54 45 37 25 20 21 8 7 16 22 33 40 49 58 66 72 72 75 77 82 82 82 93 88 88 91 81 76 77
85 84 87 88 89 102 109 113 105 80 70 67 66 60 48 44 34 26 25 16 5 9 13 21 29 37 46 54 62 69 79 83 84 86 81 87 96 95 90 86 81 75 75
81 89 89 91 92 101 110 111 102 98 87 73 58 56 55 42 33 26 24 14 4 7 13 20 26 35 44 52 60 70 79 84 89 91 83 91 103 95 92 85 80 78 76
82 81 91 90 93 102 109 104 96 89 85 80 70 57 51 39 35 34 24 15 9 7 10 18 25 35 43 51 60 68 77 85 90 93 83 99 108 99 95 85 85 82 78
75 81 90 92 92 104 111 108 101 91 77 68 69 62 59 52 41 31 23 14 8 5 10 17 24 32 41 50 60 70 77 84 90 90 86 109 110 102 94 92 88 85 81
77 83 87 88 93 96 105 103 95 81 72 71 64 57 49 42 36 29 21 13 7 3 10 18 27 32 38 48 57 67 73 81 84 86 90 117 115 105 98 95 90 83 81
77 80 86 89 92 101 100 93 82 71 71 68 65 56 52 43 37 29 19 12 5 7 14 20 26 34 39 46 55 63 71 77 78 84 104 117 114 108 103 97 89 85 78
79 84 87 88 91 95 89 81 74 75 70 65 62 54 50 44 35 26 18 10 5 8 14 18 24 30 35 39 46 54 64 73 70 80 115 111 116 115 109 99 95 92 86
75 77 80 85 87 83 78 75 77 72 67 63 58 49 44 36 32 24 17 10 4 9 14 19 25 31 37 39 43 49 54 64 65 88 104 111 114 121 113 106 99 102 90
66 75 75 81 83 82 78 78 75 70 66 63 57 49 42 37 28 21 14 6 5 11 16 20 25 29 34 40 41 47 53 62 70 87 101 111 115 118 118 111 112 107 97
62 66 79 84 82 77 78 75 69 65 61 56 51 46 40 33 26 18 11 7 9 15 19 22 25 29 34 39 41 46 54 63 71 85 97 108 114 114 118 118 121 110 103
Wind_Direction_500mb
238 239 239 239 239 240 242 244 243 240 237 235 235 237 240 245 254 260 263 265 271 280 284 289 293 295 298 296 294 290 288 287 280 294 295 299 301 301 300 298 299 301 300
243 241 241 241 241 241 243 243 242 239 237 236 234 236 239 244 249 256 262 267 273 280 285 289 295 299 298 295 294 292 291 288 276 284 299 300 299 301 299 295 298 298 295
246 244 241 243 243 243 242 242 239 237 235 234 234 234 238 243 249 254 260 264 271 279 285 292 299 298 295 298 297 294 293 285 274 275 291 298 297 298 297 293 292 293 291
250 246 244 243 244 243 243 241 236 235 234 232 233 233 237 241 247 254 258 265 275 281 287 295 298 297 299 300 298 296 296 290 283 279 280 287 286 290 292 294 294 291 290
251 247 245 245 243 242 242 239 235 233 232 230 230 232 235 240 246 250 256 265 275 283 291 297 298 300 303 303 290 294 293 290 287 282 280 280 283 286 286 289 287 291 290
248 248 246 243 242 241 239 236 233 230 229 227 227 229 234 239 245 251 260 271 278 289 296 298 300 302 306 305 299 288 286 287 286 284 284 282 282 281 283 281 283 285 286
248 244 243 241 241 239 236 231 229 228 226 224 224 227 232 237 243 253 265 273 280 288 294 299 303 307 310 313 310 296 293 290 284 286 285 282 283 284 285 283 281 279 279
242 241 241 240 238 235 232 228 226 225 223 222 222 225 228 233 243 253 265 269 278 286 295 298 307 314 317 306 304 304 303 298 293 293 287 289 286 287 283 282 282 278 277
243 241 239 238 235 231 228 226 224 221 219 218 220 222 223 228 244 253 259 267 275 288 294 304 316 317 313 305 308 306 303 305 303 297 293 286 285 285 283 283 278 273 274
243 240 238 236 234 231 229 224 222 222 220 217 218 218 218 234 240 246 253 261 276 290 301 314 315 313 309 311 308 306 303 311 317 312 303 291 288 293 288 277 276 268 270
244 241 237 234 232 228 227 220 217 214 213 213 215 217 224 230 235 240 244 259 277 294 303 308 315 316 315 311 311 303 307 314 304 302 307 307 309 305 296 290 287 271 264
251 244 238 232 229 225 222 220 213 210 209 209 208 217 226 226 229 232 238 251 268 278 301 316 317 320 319 320 319 317 312 311 317 327 318 309 308 307 304 293 282 275 271
260 250 242 236 231 226 220 217 210 206 207 205 206 216 221 224 222 228 238 254 262 287 313 318 323 327 326 327 334 333 332 333 332 321 324 313 307 309 306 306 295 286 274
261 255 248 237 230 223 219 216 212 207 203 201 207 211 219 221 216 215 225 242 279 308 315 333 332 328 335 342 344 345 343 344 339 331 318 321 313 312 309 307 297 295 293
254 250 248 240 233 224 220 212 208 211 210 211 212 213 215 213 210 214 217 247 270 313 336 336 329 342 345 349 350 350 348 348 346 337 325 324 315 313 308 305 298 295 286
254 247 241 234 229 223 216 206 206 205 211 208 210 217 203 199 199 198 197 217 227 326 335 335 345 346 350 353 354 351 353 353 350 342 333 322 319 316 312 307 301 294 287
255 249 243 236 229 221 212 205 195 190 198 202 196 203 197 202 188 183 210 195 204 323 326 342 344 349 352 351 350 350 352 354 352 345 333 322 323 318 314 309 303 298 291
249 249 244 238 231 222 211 203 198 188 178 179 186 183 189 186 175 182 197 200 240 310 326 346 350 352 352 351 349 349 351 352 354 349 337 327 325 320 317 311 306 301 295
245 242 241 236 227 217 205 198 195 195 190 186 173 174 181 177 178 184 191 204 229 281 332 345 351 352 352 352 353 352 353 353 354 348 338 330 329 325 319 314 310 304 298
244 240 233 226 216 206 201 199 197 195 192 187 182 181 181 179 185 183 194 204 225 283 342 345 349 350 352 353 356 354 352 355 356 348 342 333 332 328 323 319 315 308 302
233 224 218 208 202 195 197 197 195 194 186 184 183 183 181 183 185 192 196 200 221 303 347 353 351 349 351 356 358 356 352 354 356 350 341 338 338 330 329 324 318 313 306
224 216 205 198 196 193 196 193 190 185 187 183 178 176 181 180 189 190 191 206 238 325 345 354 354 351 351 357 358 355 352 354 354 353 342 345 343 338 334 329 325 322 316
207 197 188 190 195 194 187 183 179 184 183 180 178 179 174 182 185 186 194 204 236 329 333 333 344 350 352 357 0 356 352 356 353 351 346 349 349 347 341 336 333 330 326
197 195 191 191 188 179 174 172 179 179 178 178 179 176 178 183 190 192 199 205 272 319 316 326 340 346 351 354 357 357 355 1 2 349 349 357 353 357 351 345 342 339 336
189 186 187 179 171 168 170 176 174 173 175 177 175 176 179 190 193 200 209 227 289 304 315 323 336 341 349 354 352 355 355 9 4 345 354 360 359 1 1 355 352 348 346
182 181 172 167 165 166 172 170 170 171 174 175 177 177 183 192 197 206 222 259 297 309 322 326 333 337 345 352 353 355 1 12 358 346 356 0 360 2 4 4 3 356 352
Wind_Speed_850mb
94 98 103 99 100 100 94 89 86 85 86 81 75 68 63 58 56 55 52 50 48 46 48 51 52 56 59 63 67 69 71 71 92 158 127 127 126 128 126 114 117 125 126
91 99 102 106 104 101 99 93 87 84 84 80 74 69 65 60 58 56 54 48 47 47 50 53 56 58 63 68 69 72 74 72 78 113 142 133 134 128 120 107 114 113 113
91 97 101 103 103 102 100 96 86 81 83 82 79 72 67 63 60 55 54 48 47 49 52 54 58 62 68 69 71 73 72 69 71 90 130 130 132 126 125 105 100 106 108
91 95 99 99 99 100 100 95 85 80 83 83 79 72 69 64 59 55 51 47 48 51 52 55 59 63 66 67 68 70 72 74 78 87 106 124 113 110 108 111 116 98 104
94 96 97 94 96 97 98 93 82 76 80 79 78 74 70 64 57 52 49 47 50 52 52 55 59 62 60 59 61 68 70 80 82 87 100 101 104 101 100 102 102 111 109
94 95 93 93 94 94 93 88 82 78 79 81 81 76 68 61 53 49 48 47 50 50 53 55 58 59 57 57 59 61 66 77 90 93 100 102 116 106 107 104 101 103 110
90 92 92 90 91 91 89 86 85 82 82 85 82 74 65 56 50 44 48 51 49 47 50 54 55 55 55 64 67 65 71 74 79 89 107 115 116 114 108 112 107 111 117
83 83 84 86 89 88 87 85 84 84 84 85 80 71 61 53 45 46 54 49 44 45 47 50 52 53 58 59 69 75 83 89 91 91 96 113 112 114 107 113 118 119 123
73 77 81 84 89 87 87 87 84 83 84 84 76 67 59 46 47 56 50 44 40 42 44 45 47 56 62 53 63 83 100 101 83 80 88 91 94 100 100 103 110 97 110
66 74 78 81 85 84 85 84 77 78 80 81 73 65 51 51 57 51 43 37 39 40 42 45 50 54 52 52 67 79 94 100 90 99 99 94 108 115 82 81 96 98 101
62 67 74 80 82 82 81 83 80 84 84 79 69 59 53 59 50 45 39 32 33 33 40 47 48 50 49 60 58 68 75 79 91 101 95 88 88 83 71 79 81 84 97
58 63 71 76 79 82 82 84 83 89 89 79 69 58 60 52 47 40 32 27 22 31 33 40 44 46 55 57 57 57 61 65 71 81 84 83 83 82 79 74 74 84 100
60 65 67 72 77 82 84 87 92 94 87 78 64 62 59 54 44 36 28 24 20 18 26 32 38 45 50 51 52 55 57 61 65 72 82 81 80 88 89 87 74 82 95
64 68 71 74 81 85 86 87 95 97 92 78 70 67 59 52 41 32 22 17 13 16 22 27 35 40 45 51 56 58 60 61 66 70 80 86 81 88 87 79 77 81 85
73 72 74 78 83 86 92 97 102 91 81 76 75 64 63 53 39 29 18 9 11 11 18 24 31 41 50 57 62 65 64 67 73 74 83 84 87 92 87 76 82 87 80
82 81 84 87 88 93 100 103 97 87 83 72 57 58 54 45 37 25 20 21 8 7 16 22 33 40 49 58 66 72 72 75 77 82 82 82 93 88 88 91 81 76 77
85 84 87 88 89 102 109 113 105 80 70 67 66 60 48 44 34 26 25 16 5 9 13 21 29 37 46 54 62 69 79 83 84 86 81 87 96 95 90 86 81 75 75
81 89 89 91 92 101 110 111 102 98 87 73 58 56 55 42 33 26 24 14 4 7 13 20 26 35 44 52 60 70 79 84 89 91 83 91 103 95 92 85 80 78 76
82 81 91 90 93 102 109 104 96 89 85 80 70 57 51 39 35 34 24 15 9 7 10 18 25 35 43 51 60 68 77 85 90 93 83 99 108 99 95 85 85 82 78
75 81 90 92 92 104 111 108 101 91 77 68 69 62 59 52 41 31 23 14 8 5 10 17 24 32 41 50 60 70 77 84 90 90 86 109 110 102 94 92 88 85 81
77 83 87 88 93 96 105 103 95 81 72 71 64 57 49 42 36 29 21 13 7 3 10 18 27 32 38 48 57 67 73 81 84 86 90 117 115 105 98 95 90 83 81
77 80 86 89 92 101 100 93 82 71 71 68 65 56 52 43 37 29 19 12 5 7 14 20 26 34 39 46 55 63 71 77 78 84 104 117 114 108 103 97 89 85 78
79 84 87 88 91 95 89 81 74 75 70 65 62 54 50 44 35 26 18 10 5 8 14 18 24 30 35 39 46 54 64 73 70 80 115 111 116 115 109 99 95 92 86
75 77 80 85 87 83 78 75 77 72 67 63 58 49 44 36 32 24 17 10 4 9 14 19 25 31 37 39 43 49 54 64 65 88 104 111 114 121 113 106 99 102 90
66 75 75 81 83 82 78 78 75 70 66 63 57 49 42 37 28 21 14 6 5 11 16 20 25 29 34 40 41 47 53 62 70 87 101 111 115 118 118 111 112 107 97
62 66 79 84 82 77 78 75 69 65 61 56 51 46 40 33 26 18 11 7 9 15 19 22 25 29 34 39 41 46 54 63 71 85 97 108 114 114 118 118 121 110 103
Wind_Direction_850mb
238 239 239 239 239 240 242 244 243 240 237 235 235 237 240 245 254 260 263 265 271 280 284 289 293 295 298 296 294 290 288 287 280 294 295 299 301 301 300 298 299 301 300
243 241 241 241 241 241 243 243 242 239 237 236 234 236 239 244 249 256 262 267 273 280 285 289 295 299 298 295 294 292 291 288 276 284 299 300 299 301 299 295 298 298 295
246 244 241 243 243 243 242 242 239 237 235 234 234 234 238 243 249 254 260 264 271 279 285 292 299 298 295 298 297 294 293 285 274 275 291 298 297 298 297 293 292 293 291
250 246 244 243 244 243 243 241 236 235 234 232 233 233 237 241 247 254 258 265 275 281 287 295 298 297 299 300 298 296 296 290 283 279 280 287 286 290 292 294 294 291 290
251 247 245 245 243 242 242 239 235 233 232 230 230 232 235 240 246 250 256 265 275 283 291 297 298 300 303 303 290 294 293 290 287 282 280 280 283 286 286 289 287 291 290
248 248 246 243 242 241 239 236 233 230 229 227 227 229 234 239 245 251 260 271 278 289 296 298 300 302 306 305 299 288 286 287 286 284 284 282 282 281 283 281 283 285 286
248 244 243 241 241 239 236 231 229 228 226 224 224 227 232 237 243 253 265 273 280 288 294 299 303 307 310 313 310 296 293 290 284 286 285 282 283 284 285 283 281 279 279
242 241 241 240 238 235 232 228 226 225 223 222 222 225 228 233 243 253 265 269 278 286 295 298 307 314 317 306 304 304 303 298 293 293 287 289 286 287 283 282 282 278 277
243 241 239 238 235 231 228 226 224 221 219 218 220 222 223 228 244 253 259 267 275 288 294 304 316 317 313 305 308 306 303 305 303 297 293 286 285 285 283 283 278 273 274
243 240 238 236 234 231 229 224 222 222 220 217 218 218 218 234 240 246 253 261 276 290 301 314 315 313 309 311 308 306 303 311 317 312 303 291 288 293 288 277 276 268 270
244 241 237 234 232 228 227 220 217 214 213 213 215 217 224 230 235 240 244 259 277 294 303 308 315 316 315 311 311 303 307 314 304 302 307 307 309 305 296 290 287 271 264
251 244 238 232 229 225 222 220 213 210 209 209 208 217 226 226 229 232 238 251 268 278 301 316 317 320 319 320 319 317 312 311 317 327 318 309 308 307 304 293 282 275 271
260 250 242 236 231 226 220 217 210 206 207 205 206 216 221 224 222 228 238 254 262 287 313 318 323 327 326 327 334 333 332 333 332 321 324 313 307 309 306 306 295 286 274
261 255 248 237 230 223 219 216 212 207 203 201 207 211 219 221 216 215 225 242 279 308 315 333 332 328 335 342 344 345 343 344 339 331 318 321 313 312 309 307 297 295 293
254 250 248 240 233 224 220 212 208 211 210 211 212 213 215 213 210 214 217 247 270 313 336 336 329 342 345 349 350 350 348 348 346 337 325 324 315 313 308 305 298 295 286
254 247 241 234 229 223 216 206 206 205 211 208 210 217 203 199 199 198 197 217 227 326 335 335 345 346 350 353 354 351 353 353 350 342 333 322 319 316 312 307 301 294 287
255 249 243 236 229 221 212 205 195 190 198 202 196 203 197 202 188 183 210 195 204 323 326 342 344 349 352 351 350 350 352 354 352 345 333 322 323 318 314 309 303 298 291
249 249 244 238 231 222 211 203 198 188 178 179 186 183 189 186 175 182 197 200 240 310 326 346 350 352 352 351 349 349 351 352 354 349 337 327 325 320 317 311 306 301 295
245 242 241 236 227 217 205 198 195 195 190 186 173 174 181 177 178 184 191 204 229 281 332 345 351 352 352 352 353 352 353 353 354 348 338 330 329 325 319 314 310 304 298
244 240 233 226 216 206 201 199 197 195 192 187 182 181 181 179 185 183 194 204 225 283 342 345 349 350 352 353 356 354 352 355 356 348 342 333 332 328 323 319 315 308 302
233 224 218 208 202 195 197 197 195 194 186 184 183 183 181 183 185 192 196 200 221 303 347 353 351 349 351 356 358 356 352 354 356 350 341 338 338 330 329 324 318 313 306
224 216 205 198 196 193 196 193 190 185 187 183 178 176 181 180 189 190 191 206 238 325 345 354 354 351 351 357 358 355 352 354 354 353 342 345 343 338 334 329 325 322 316
207 197 188 190 195 194 187 183 179 184 183 180 178 179 174 182 185 186 194 204 236 329 333 333 344 350 352 357 0 356 352 356 353 351 346 349 349 347 341 336 333 330 326
197 195 191 191 188 179 174 172 179 179 178 178 179 176 178 183 190 192 199 205 272 319 316 326 340 346 351 354 357 357 355 1 2 349 349 357 353 357 351 345 342 339 336
189 186 187 179 171 168 170 176 174 173 175 177 175 176 179 190 193 200 209 227 289 304 315 323 336 341 349 354 352 355 355 9 4 345 354 360 359 1 1 355 352 348 346
182 181 172 167 165 166 172 170 170 171 174 175 177 177 183 192 197 206 222 259 297 309 322 326 333 337 345 352 353 355 1 12 358 346 356 0 360 2 4 4 3 356 352